Time,TemperatureF,DewpointF,PressureIn,WindDirection,WindDirectionDegrees,WindSpeedMPH,WindSpeedGustMPH,Humidity,HourlyPrecipIn,Conditions,Clouds,dailyrainin,SoftwareType,DateUTC
2013-03-02 00:01:00,25.0,10.0,30.31,ENE,63,2.0,5.0,52,0.00,,,0.00,,2013-03-02 06:01:00,
2013-03-02 00:11:00,25.0,10.0,30.31,ENE,63,2.0,5.0,52,0.00,,,0.00,,2013-03-02 06:11:00,
2013-03-02 00:21:00,25.0,10.0,30.31,East,82,4.0,5.0,52,0.00,,,0.00,,2013-03-02 06:21:00,
2013-03-02 00:31:00,25.0,10.0,30.28,NE,34,4.0,5.0,52,0.00,,,0.00,,2013-03-02 06:31:00,
2013-03-02 00:41:00,25.0,10.0,30.28,NE,34,4.0,5.0,52,0.00,,,0.00,,2013-03-02 06:41:00,
2013-03-02 00:52:00,25.0,10.0,30.28,East,80,5.0,7.0,52,0.00,,,0.00,,2013-03-02 06:52:00,
2013-03-02 01:01:00,25.0,10.0,30.28,NE,55,4.0,8.0,52,0.00,,,0.00,,2013-03-02 07:01:00,
2013-03-02 01:11:00,25.0,10.0,30.28,ENE,70,3.0,7.0,52,0.00,,,0.00,,2013-03-02 07:11:00,
2013-03-02 01:21:00,25.0,10.0,30.28,ENE,70,3.0,7.0,52,0.00,,,0.00,,2013-03-02 07:21:00,
2013-03-02 01:32:00,25.0,10.0,30.31,NE,48,4.0,8.0,52,0.00,,,0.00,,2013-03-02 07:32:00,
2013-03-02 01:42:00,25.0,10.0,30.31,NE,48,4.0,8.0,52,0.00,,,0.00,,2013-03-02 07:42:00,
2013-03-02 01:52:00,24.0,9.0,30.31,ENE,61,3.0,9.0,53,0.00,,,0.00,,2013-03-02 07:52:00,
2013-03-02 02:01:00,24.0,10.0,30.31,NE,55,5.0,9.0,54,0.00,,,0.00,,2013-03-02 08:01:00,
2013-03-02 02:11:00,24.0,10.0,30.31,NE,55,5.0,9.0,54,0.00,,,0.00,,2013-03-02 08:11:00,
2013-03-02 02:21:00,24.0,11.0,30.31,ENE,76,5.0,7.0,57,0.00,,,0.00,,2013-03-02 08:21:00,
2013-03-02 02:32:00,23.0,10.0,30.28,NE,52,5.0,7.0,56,0.00,,,0.00,,2013-03-02 08:32:00,
2013-03-02 02:42:00,23.0,10.0,30.28,NE,52,5.0,7.0,56,0.00,,,0.00,,2013-03-02 08:42:00,
2013-03-02 02:52:00,23.0,10.0,30.28,NE,54,0.0,5.0,57,0.00,,,0.00,,2013-03-02 08:52:00,
2013-03-02 03:01:00,22.0,9.0,30.28,ENE,63,3.0,6.0,56,0.00,,,0.00,,2013-03-02 09:01:00,
2013-03-02 03:11:00,21.0,8.0,30.28,NE,45,3.0,7.0,57,0.00,,,0.00,,2013-03-02 09:11:00,
2013-03-02 03:21:00,21.0,8.0,30.28,NE,45,3.0,7.0,57,0.00,,,0.00,,2013-03-02 09:21:00,
2013-03-02 03:31:00,21.0,9.0,30.28,NE,43,3.0,6.0,58,0.00,,,0.00,,2013-03-02 09:31:00,
2013-03-02 03:42:00,21.0,9.0,30.28,NE,43,3.0,6.0,58,0.00,,,0.00,,2013-03-02 09:42:00,
2013-03-02 03:52:00,20.0,9.0,30.28,NNE,33,4.0,7.0,61,0.00,,,0.00,,2013-03-02 09:52:00,
2013-03-02 04:01:00,20.0,9.0,30.28,NE,34,3.0,8.0,62,0.00,,,0.00,,2013-03-02 10:01:00,
2013-03-02 04:15:00,19.0,9.0,30.28,NE,36,5.0,9.0,63,0.00,,,0.00,,2013-03-02 10:15:00,
2013-03-02 04:21:00,19.0,9.0,30.28,NE,36,5.0,9.0,63,0.00,,,0.00,,2013-03-02 10:21:00,
2013-03-02 04:31:00,19.0,9.0,30.28,NNE,28,3.0,6.0,63,0.00,,,0.00,,2013-03-02 10:31:00,
2013-03-02 04:42:00,19.0,9.0,30.28,NNE,28,3.0,6.0,63,0.00,,,0.00,,2013-03-02 10:42:00,
2013-03-02 04:52:00,18.0,8.0,30.28,NE,34,3.0,5.0,65,0.00,,,0.00,,2013-03-02 10:52:00,
2013-03-02 05:01:00,18.0,8.0,30.28,NNE,23,0.0,6.0,65,0.00,,,0.00,,2013-03-02 11:01:00,
2013-03-02 05:11:00,18.0,8.0,30.28,NNE,23,0.0,6.0,65,0.00,,,0.00,,2013-03-02 11:11:00,
2013-03-02 05:21:00,17.0,8.0,30.31,NW,304,2.0,6.0,67,0.00,,,0.00,,2013-03-02 11:21:00,
2013-03-02 05:32:00,16.0,7.0,30.31,NNE,33,0.0,5.0,68,0.00,,,0.00,,2013-03-02 11:32:00,
2013-03-02 05:41:00,16.0,7.0,30.31,NNE,33,0.0,5.0,68,0.00,,,0.00,,2013-03-02 11:41:00,
2013-03-02 05:52:00,16.0,8.0,30.31,NNE,32,0.0,4.0,71,0.00,,,0.00,,2013-03-02 11:52:00,
2013-03-02 06:02:00,16.0,8.0,30.31,NNE,24,0.0,4.0,70,0.00,,,0.00,,2013-03-02 12:02:00,
2013-03-02 06:11:00,16.0,8.0,30.31,NNE,24,0.0,4.0,70,0.00,,,0.00,,2013-03-02 12:11:00,
2013-03-02 06:21:00,15.0,7.0,30.31,NNE,24,0.0,0.0,70,0.00,,,0.00,,2013-03-02 12:21:00,
2013-03-02 06:33:00,15.0,7.0,30.31,NNE,24,0.0,0.0,70,0.00,,,0.00,,2013-03-02 12:33:00,
2013-03-02 06:43:00,15.0,7.0,30.31,NNE,24,0.0,0.0,70,0.00,,,0.00,,2013-03-02 12:43:00,
2013-03-02 06:53:00,14.0,7.0,30.31,NNE,13,0.0,4.0,72,0.00,,,0.00,,2013-03-02 12:53:00,
2013-03-02 07:01:00,14.0,7.0,30.31,NNE,19,0.0,5.0,73,0.00,,,0.00,,2013-03-02 13:01:00,
2013-03-02 07:11:00,14.0,7.0,30.31,NNE,19,0.0,5.0,73,0.00,,,0.00,,2013-03-02 13:11:00,
2013-03-02 07:21:00,14.0,7.0,30.31,NNE,17,0.0,3.0,73,0.00,,,0.00,,2013-03-02 13:21:00,
2013-03-02 07:31:00,14.0,8.0,30.31,NNE,24,3.0,5.0,75,0.00,,,0.00,,2013-03-02 13:31:00,
2013-03-02 07:41:00,14.0,8.0,30.31,NNE,24,3.0,5.0,75,0.00,,,0.00,,2013-03-02 13:41:00,
2013-03-02 07:52:00,15.0,9.0,30.31,NNE,16,3.0,5.0,76,0.00,,,0.00,,2013-03-02 13:52:00,
2013-03-02 08:01:00,15.0,9.0,30.31,NW,305,4.0,5.0,75,0.00,,,0.00,,2013-03-02 14:01:00,
2013-03-02 08:11:00,15.0,9.0,30.31,NW,305,4.0,5.0,75,0.00,,,0.00,,2013-03-02 14:11:00,
2013-03-02 08:21:00,17.0,9.0,30.31,NNE,14,3.0,7.0,71,0.00,,,0.00,,2013-03-02 14:21:00,
2013-03-02 08:32:00,17.0,8.0,30.31,North,0,6.0,7.0,67,0.00,,,0.00,,2013-03-02 14:32:00,
2013-03-02 08:42:00,17.0,8.0,30.31,North,0,6.0,7.0,67,0.00,,,0.00,,2013-03-02 14:42:00,
2013-03-02 08:52:00,18.0,7.0,30.31,NNE,15,6.0,7.0,62,0.00,,,0.00,,2013-03-02 14:52:00,
2013-03-02 09:02:00,19.0,7.0,30.31,NE,46,5.0,8.0,59,0.00,,,0.00,,2013-03-02 15:02:00,
2013-03-02 09:11:00,19.0,7.0,30.31,NE,46,5.0,8.0,59,0.00,,,0.00,,2013-03-02 15:11:00,
2013-03-02 09:21:00,20.0,7.0,30.31,North,8,3.0,9.0,56,0.00,,,0.00,,2013-03-02 15:21:00,
2013-03-02 09:32:00,21.0,7.0,30.31,NW,305,0.0,7.0,55,0.00,,,0.00,,2013-03-02 15:32:00,
2013-03-02 09:41:00,21.0,7.0,30.31,NW,305,0.0,7.0,55,0.00,,,0.00,,2013-03-02 15:41:00,
2013-03-02 09:52:00,22.0,8.0,30.31,NNE,32,4.0,7.0,53,0.00,,,0.00,,2013-03-02 15:52:00,
2013-03-02 10:01:00,22.0,8.0,30.31,NNE,21,4.0,10.0,53,0.00,,,0.00,,2013-03-02 16:01:00,
2013-03-02 10:11:00,22.0,8.0,30.31,NNE,21,4.0,10.0,53,0.00,,,0.00,,2013-03-02 16:11:00,
2013-03-02 10:21:00,23.0,8.0,30.31,NNE,32,3.0,8.0,52,0.00,,,0.00,,2013-03-02 16:21:00,
2013-03-02 10:31:00,24.0,9.0,30.31,NE,36,3.0,7.0,51,0.00,,,0.00,,2013-03-02 16:31:00,
2013-03-02 10:41:00,24.0,9.0,30.31,NE,36,3.0,7.0,51,0.00,,,0.00,,2013-03-02 16:41:00,
2013-03-02 10:52:00,24.0,8.0,30.31,North,1,2.0,7.0,49,0.00,,,0.00,,2013-03-02 16:52:00,
2013-03-02 11:01:00,26.0,9.0,30.31,WNW,301,4.0,7.0,48,0.00,,,0.00,,2013-03-02 17:01:00,
2013-03-02 11:11:00,26.0,9.0,30.31,NNE,16,5.0,8.0,47,0.00,,,0.00,,2013-03-02 17:11:00,
2013-03-02 11:21:00,26.0,9.0,30.31,NNE,16,5.0,8.0,47,0.00,,,0.00,,2013-03-02 17:21:00,
2013-03-02 11:32:00,27.0,9.0,30.31,WNW,302,4.0,7.0,46,0.00,,,0.00,,2013-03-02 17:32:00,
2013-03-02 11:42:00,27.0,9.0,30.31,WNW,302,4.0,7.0,46,0.00,,,0.00,,2013-03-02 17:42:00,
2013-03-02 11:52:00,27.0,9.0,30.28,NNE,16,4.0,8.0,45,0.00,,,0.00,,2013-03-02 17:52:00,
2013-03-02 12:01:00,27.0,9.0,30.28,NE,35,4.0,8.0,45,0.00,,,0.00,,2013-03-02 18:01:00,
2013-03-02 12:11:00,27.0,9.0,30.28,NE,35,4.0,8.0,45,0.00,,,0.00,,2013-03-02 18:11:00,
2013-03-02 12:22:00,28.0,9.0,30.28,NE,35,3.0,8.0,45,0.00,,,0.00,,2013-03-02 18:22:00,
2013-03-02 12:32:00,29.0,10.0,30.28,WNW,300,6.0,6.0,44,0.00,,,0.00,,2013-03-02 18:32:00,
2013-03-02 12:42:00,29.0,10.0,30.28,WNW,300,6.0,6.0,44,0.00,,,0.00,,2013-03-02 18:42:00,
2013-03-02 12:52:00,29.0,10.0,30.28,NW,304,6.0,8.0,44,0.00,,,0.00,,2013-03-02 18:52:00,
2013-03-02 13:01:00,29.0,10.0,30.28,NNE,19,0.0,8.0,45,0.00,,,0.00,,2013-03-02 19:01:00,
2013-03-02 13:11:00,29.0,10.0,30.28,NNE,19,0.0,8.0,45,0.00,,,0.00,,2013-03-02 19:11:00,
2013-03-02 13:21:00,31.0,12.0,30.28,North,8,4.0,7.0,44,0.00,,,0.00,,2013-03-02 19:21:00,
2013-03-02 13:31:00,30.0,11.0,30.25,North,11,0.0,7.0,44,0.00,,,0.00,,2013-03-02 19:31:00,
2013-03-02 13:42:00,30.0,11.0,30.25,North,11,0.0,7.0,44,0.00,,,0.00,,2013-03-02 19:42:00,
2013-03-02 13:52:00,31.0,11.0,30.25,NE,46,0.0,6.0,43,0.00,,,0.00,,2013-03-02 19:52:00,
2013-03-02 14:01:00,31.0,11.0,30.25,NE,47,6.0,8.0,43,0.00,,,0.00,,2013-03-02 20:01:00,
2013-03-02 14:11:00,31.0,11.0,30.25,NE,47,6.0,8.0,43,0.00,,,0.00,,2013-03-02 20:11:00,
2013-03-02 14:21:00,31.0,11.0,30.25,NNE,27,0.0,9.0,43,0.00,,,0.00,,2013-03-02 20:21:00,
2013-03-02 14:32:00,31.0,11.0,30.25,North,8,5.0,9.0,43,0.00,,,0.00,,2013-03-02 20:32:00,
2013-03-02 14:42:00,31.0,11.0,30.25,North,8,5.0,9.0,43,0.00,,,0.00,,2013-03-02 20:42:00,
2013-03-02 14:52:00,31.0,11.0,30.25,WNW,299,3.0,6.0,43,0.00,,,0.00,,2013-03-02 20:52:00,
2013-03-02 15:02:00,32.0,12.0,30.25,NW,306,4.0,6.0,43,0.00,,,0.00,,2013-03-02 21:02:00,
2013-03-02 15:11:00,32.0,12.0,30.25,NW,306,4.0,6.0,43,0.00,,,0.00,,2013-03-02 21:11:00,
2013-03-02 15:22:00,32.0,12.0,30.22,NNE,13,3.0,6.0,42,0.00,,,0.00,,2013-03-02 21:22:00,
2013-03-02 15:32:00,32.0,12.0,30.22,West,280,4.0,5.0,42,0.00,,,0.00,,2013-03-02 21:32:00,
2013-03-02 15:42:00,32.0,12.0,30.22,West,280,4.0,5.0,42,0.00,,,0.00,,2013-03-02 21:42:00,
2013-03-02 15:52:00,33.0,12.0,30.22,WSW,252,0.0,6.0,42,0.00,,,0.00,,2013-03-02 21:52:00,
2013-03-02 16:02:00,32.0,12.0,30.22,NNE,32,5.0,6.0,42,0.00,,,0.00,,2013-03-02 22:02:00,
2013-03-02 16:11:00,32.0,12.0,30.22,NNE,32,5.0,6.0,42,0.00,,,0.00,,2013-03-02 22:11:00,
2013-03-02 16:21:00,32.0,12.0,30.22,NW,307,8.0,8.0,43,0.00,,,0.00,,2013-03-02 22:21:00,
2013-03-02 16:32:00,31.0,12.0,30.22,WNW,303,5.0,8.0,44,0.00,,,0.00,,2013-03-02 22:32:00,
2013-03-02 16:42:00,31.0,12.0,30.22,WNW,303,5.0,8.0,44,0.00,,,0.00,,2013-03-02 22:42:00,
2013-03-02 16:52:00,31.0,12.0,30.22,North,5,3.0,7.0,44,0.00,,,0.00,,2013-03-02 22:52:00,
2013-03-02 17:01:00,31.0,12.0,30.22,NE,35,3.0,7.0,44,0.00,,,0.00,,2013-03-02 23:01:00,
2013-03-02 17:11:00,30.0,11.0,30.22,West,281,3.0,7.0,45,0.00,,,0.00,,2013-03-02 23:11:00,
2013-03-02 17:21:00,30.0,11.0,30.22,West,281,3.0,7.0,45,0.00,,,0.00,,2013-03-02 23:21:00,
2013-03-02 17:32:00,30.0,11.0,30.22,North,356,5.0,5.0,45,0.00,,,0.00,,2013-03-02 23:32:00,
2013-03-02 17:42:00,30.0,11.0,30.22,North,356,5.0,5.0,45,0.00,,,0.00,,2013-03-02 23:42:00,
2013-03-02 17:52:00,29.0,10.0,30.22,North,7,0.0,5.0,45,0.00,,,0.00,,2013-03-02 23:52:00,
2013-03-02 18:02:00,29.0,10.0,30.22,WNW,290,0.0,5.0,45,0.00,,,0.00,,2013-03-03 00:02:00,
2013-03-02 18:11:00,29.0,10.0,30.22,WNW,290,0.0,5.0,45,0.00,,,0.00,,2013-03-03 00:11:00,
2013-03-02 18:22:00,27.0,9.0,30.22,WNW,300,0.0,4.0,46,0.00,,,0.00,,2013-03-03 00:22:00,
2013-03-02 18:32:00,27.0,9.0,30.22,WNW,300,0.0,0.0,47,0.00,,,0.00,,2013-03-03 00:32:00,
2013-03-02 18:42:00,27.0,9.0,30.22,WNW,300,0.0,0.0,47,0.00,,,0.00,,2013-03-03 00:42:00,
2013-03-02 18:52:00,26.0,9.0,30.22,WNW,300,0.0,0.0,48,0.00,,,0.00,,2013-03-03 00:52:00,
2013-03-02 19:01:00,26.0,9.0,30.22,WNW,300,0.0,0.0,48,0.00,,,0.00,,2013-03-03 01:01:00,
2013-03-02 19:11:00,26.0,9.0,30.22,WNW,300,0.0,0.0,48,0.00,,,0.00,,2013-03-03 01:11:00,
2013-03-02 19:21:00,25.0,9.0,30.19,WNW,300,0.0,0.0,50,0.00,,,0.00,,2013-03-03 01:21:00,
2013-03-02 19:31:00,25.0,9.0,30.19,WNW,300,0.0,0.0,50,0.00,,,0.00,,2013-03-03 01:31:00,
2013-03-02 19:41:00,25.0,9.0,30.19,WNW,300,0.0,0.0,50,0.00,,,0.00,,2013-03-03 01:41:00,
2013-03-02 19:52:00,25.0,10.0,30.19,WNW,300,0.0,0.0,52,0.00,,,0.00,,2013-03-03 01:52:00,
2013-03-02 20:01:00,25.0,10.0,30.19,WNW,299,0.0,0.0,52,0.00,,,0.00,,2013-03-03 02:01:00,
2013-03-02 20:11:00,25.0,10.0,30.19,WNW,299,0.0,0.0,53,0.00,,,0.00,,2013-03-03 02:11:00,
2013-03-02 20:21:00,25.0,10.0,30.19,WNW,299,0.0,0.0,53,0.00,,,0.00,,2013-03-03 02:21:00,
2013-03-02 20:31:00,25.0,10.0,30.19,WNW,299,0.0,0.0,53,0.00,,,0.00,,2013-03-03 02:31:00,
2013-03-02 20:41:00,25.0,10.0,30.19,WNW,299,0.0,0.0,53,0.00,,,0.00,,2013-03-03 02:41:00,
2013-03-02 20:52:00,25.0,10.0,30.19,WNW,299,0.0,0.0,53,0.00,,,0.00,,2013-03-03 02:52:00,
2013-03-02 21:01:00,25.0,10.0,30.19,West,278,0.0,0.0,53,0.00,,,0.00,,2013-03-03 03:01:00,
2013-03-02 21:11:00,25.0,10.0,30.19,West,278,0.0,0.0,53,0.00,,,0.00,,2013-03-03 03:11:00,
2013-03-02 21:21:00,26.0,11.0,30.19,SW,227,0.0,2.0,53,0.00,,,0.00,,2013-03-03 03:21:00,
2013-03-02 21:31:00,26.0,11.0,30.19,SW,227,0.0,2.0,53,0.00,,,0.00,,2013-03-03 03:31:00,
2013-03-02 21:41:00,26.0,11.0,30.19,SW,227,0.0,2.0,53,0.00,,,0.00,,2013-03-03 03:41:00,
2013-03-02 21:52:00,26.0,11.0,30.19,SW,226,0.0,2.0,53,0.00,,,0.00,,2013-03-03 03:52:00,
2013-03-02 22:01:00,26.0,12.0,30.19,SW,223,0.0,0.0,54,0.00,,,0.00,,2013-03-03 04:01:00,
2013-03-02 22:11:00,26.0,12.0,30.19,SW,223,0.0,0.0,54,0.00,,,0.00,,2013-03-03 04:11:00,
2013-03-02 22:21:00,26.0,12.0,30.19,SSW,206,0.0,4.0,54,0.00,,,0.00,,2013-03-03 04:21:00,
2013-03-02 22:32:00,26.0,12.0,30.19,SSW,204,3.0,3.0,54,0.00,,,0.00,,2013-03-03 04:32:00,
2013-03-02 22:41:00,26.0,12.0,30.19,SSW,204,3.0,3.0,54,0.00,,,0.00,,2013-03-03 04:41:00,
2013-03-02 22:52:00,26.0,12.0,30.19,SSW,205,2.0,3.0,54,0.00,,,0.00,,2013-03-03 04:52:00,
2013-03-02 23:01:00,26.0,12.0,30.19,SSW,203,0.0,3.0,54,0.00,,,0.00,,2013-03-03 05:01:00,
2013-03-02 23:11:00,26.0,12.0,30.19,SSW,203,0.0,3.0,54,0.00,,,0.00,,2013-03-03 05:11:00,
2013-03-02 23:22:00,26.0,12.0,30.16,SW,214,0.0,2.0,54,0.00,,,0.00,,2013-03-03 05:22:00,
2013-03-02 23:32:00,26.0,12.0,30.16,SSW,213,0.0,4.0,54,0.00,,,0.00,,2013-03-03 05:32:00,
2013-03-02 23:42:00,26.0,12.0,30.16,SSW,213,0.0,4.0,54,0.00,,,0.00,,2013-03-03 05:42:00,
2013-03-02 23:52:00,26.0,11.0,30.16,South,185,0.0,3.0,53,0.00,,,0.00,,2013-03-03 05:52:00,